Weather History for KLBL - October, 2011

Change the Weather History Date:

Tuesday, October 25, 2011

  Actual Average Record
Temperature  
Mean Temperature 68 °F -  
Max Temperature 80 °F 69 °F 92 °F (1959)
Min Temperature 55 °F 41 °F 23 °F (1975)
Cooling Degree Days 2    
Growing Degree Days 18 (Base 50)    
Moisture  
Dew Point 35 °F    
Average Humidity 30    
Maximum Humidity 48    
Minimum Humidity 16    
Precipitation  
Precipitation 0.00 in - - ()
Sea Level Pressure  
Sea Level Pressure 29.91 in    
Wind  
Wind Speed 16 mph (WSW)    
Max Wind Speed 25 mph    
Max Gust Speed 31 mph    
Visibility 10 miles    
Events      
Averages and records for this station are not official NWS values.
T = Trace of Precipitation, MM = Missing Value Source: NWS Daily Summary

Daily Weather History Graph

Daily Weather History Graph

Search for Another Location

Airport or City:

Trip Planner

Search our weather history database for the weather conditions in past years. The results will help you decide how hot, cold, wet, or windy it might be!

Date:

Astronomy

Oct. 25, 2011 Rise Set
Actual Time 8:00 AM CDT 6:54 PM CDT
Civil Twilight 7:34 AM CDT 7:21 PM CDT
Nautical Twilight 7:03 AM CDT 7:51 PM CDT
Astronomical Twilight 6:33 AM CDT 8:21 PM CDT
Moon 6:36 AM CDT (10/25) 5:57 PM CDT (10/25)
Length of Visible Light 11h 46m
Length of Day
10h 53m
Waning Crescent, 2% of the Moon is Illuminated
Oct 25
Waning Crescent
Oct 26
New
Nov 2
First Quarter
Nov 10
Full
Nov 18
Last Quarter

Hourly Weather History & Observations

Time (CDT) Temp. Dew Point Humidity Pressure Visibility Wind Dir Wind Speed Gust Speed Precip Events Conditions
12:15 AM 69.8 °F 39.2 °F 33% 29.91 in 10.0 mi South 23.0 mph 27.6 mph N/A   Clear
12:35 AM 68.0 °F 41.0 °F 37% 29.91 in 10.0 mi South 25.3 mph 31.1 mph N/A   Clear
12:55 AM 66.2 °F 41.0 °F 40% 29.91 in 10.0 mi South 20.7 mph 27.6 mph N/A   Clear
1:15 AM 66.2 °F 39.2 °F 37% 29.91 in 10.0 mi South 21.9 mph 26.5 mph N/A   Clear
1:35 AM 64.4 °F 39.2 °F 40% 29.91 in 10.0 mi South 19.6 mph 26.5 mph N/A   Clear
1:55 AM 64.4 °F 37.4 °F 37% 29.90 in 10.0 mi South 19.6 mph - N/A   Clear
2:15 AM 64.4 °F 37.4 °F 37% 29.90 in 10.0 mi South 17.3 mph - N/A   Clear
2:35 AM 62.6 °F 37.4 °F 39% 29.89 in 10.0 mi South 16.1 mph - N/A   Clear
2:55 AM 62.6 °F 37.4 °F 39% 29.89 in 10.0 mi South 17.3 mph 21.9 mph N/A   Clear
3:15 AM 60.8 °F 37.4 °F 42% 29.88 in 10.0 mi South 15.0 mph - N/A   Clear
3:35 AM 60.8 °F 37.4 °F 42% 29.88 in 10.0 mi South 17.3 mph - N/A   Clear
3:55 AM 60.8 °F 37.4 °F 42% 29.87 in 10.0 mi South 13.8 mph - N/A   Clear
4:15 AM 59.0 °F 37.4 °F 45% 29.87 in 10.0 mi SSW 16.1 mph - N/A   Clear
4:35 AM 59.0 °F 35.6 °F 42% 29.87 in 10.0 mi SSW 12.7 mph - N/A   Clear
4:55 AM 59.0 °F 37.4 °F 45% 29.87 in 10.0 mi SSW 11.5 mph - N/A   Clear
5:15 AM 57.2 °F 37.4 °F 48% 29.86 in 10.0 mi SSW 12.7 mph - N/A   Clear
5:35 AM 60.8 °F 37.4 °F 42% 29.86 in 10.0 mi SSW 13.8 mph - N/A   Clear
5:55 AM 60.8 °F 37.4 °F 42% 29.86 in 10.0 mi SSW 15.0 mph - N/A   Clear
6:15 AM 60.8 °F 37.4 °F 42% 29.87 in 10.0 mi SW 17.3 mph - N/A   Clear
6:35 AM 60.8 °F 35.6 °F 39% 29.87 in 10.0 mi SW 13.8 mph - N/A   Clear
6:55 AM 59.0 °F 35.6 °F 42% 29.87 in 10.0 mi WSW 12.7 mph - N/A   Clear
7:15 AM 57.2 °F 35.6 °F 44% 29.88 in 10.0 mi WSW 11.5 mph - N/A   Clear
7:35 AM 57.2 °F 35.6 °F 44% 29.88 in 10.0 mi WSW 12.7 mph - N/A   Clear
7:55 AM 57.2 °F 33.8 °F 41% 29.88 in 10.0 mi WSW 11.5 mph - N/A   Clear
8:15 AM 55.4 °F 33.8 °F 44% 29.90 in 10.0 mi WSW 10.4 mph - N/A   Clear
8:35 AM 57.2 °F 33.8 °F 41% 29.90 in 10.0 mi WSW 10.4 mph - N/A   Clear
8:55 AM 57.2 °F 33.8 °F 41% 29.91 in 10.0 mi WSW 10.4 mph - N/A   Clear
9:15 AM 60.8 °F 33.8 °F 36% 29.91 in 10.0 mi WSW 12.7 mph - N/A   Clear
9:35 AM 62.6 °F 33.8 °F 34% 29.91 in 10.0 mi WSW 10.4 mph - N/A   Clear
9:55 AM 66.2 °F 33.8 °F 30% 29.91 in 10.0 mi West 11.5 mph - N/A   Clear
10:15 AM 73.4 °F 35.6 °F 25% 29.91 in 10.0 mi WNW 10.4 mph - N/A   Clear
10:35 AM 77.0 °F 33.8 °F 21% 29.92 in 10.0 mi NW 15.0 mph - N/A   Clear
10:55 AM 78.8 °F 32.0 °F 18% 29.93 in 10.0 mi NW 16.1 mph - N/A   Clear
11:15 AM 78.8 °F 30.2 °F 17% 29.94 in 10.0 mi NNE 15.0 mph 23.0 mph N/A   Clear
11:35 AM 78.8 °F 28.4 °F 16% 29.94 in 10.0 mi North 11.5 mph - N/A   Clear
11:55 AM 78.8 °F 28.4 °F 16% 29.94 in 10.0 mi North 13.8 mph - N/A   Clear
12:15 PM 78.8 °F 28.4 °F 16% 29.95 in 10.0 mi North 13.8 mph 18.4 mph N/A   Clear
12:35 PM 78.8 °F 30.2 °F 17% 29.95 in 10.0 mi NNE 10.4 mph - N/A   Clear
12:55 PM 78.8 °F 30.2 °F 17% 29.95 in 10.0 mi NNE 15.0 mph - N/A   Clear
1:15 PM 78.8 °F 30.2 °F 17% 29.94 in 10.0 mi NNE 11.5 mph - N/A   Clear
1:35 PM 78.8 °F 30.2 °F 17% 29.94 in 10.0 mi NNE 13.8 mph 17.3 mph N/A   Clear
1:55 PM 80.6 °F 32.0 °F 17% 29.93 in 10.0 mi NE 15.0 mph - N/A   Clear
2:15 PM 80.6 °F 33.8 °F 18% 29.92 in 10.0 mi NE 13.8 mph - N/A   Clear
2:35 PM 80.6 °F 33.8 °F 18% 29.92 in 10.0 mi NE 11.5 mph - N/A   Clear
2:55 PM 80.6 °F 33.8 °F 18% 29.92 in 10.0 mi NNE 17.3 mph - N/A   Clear
3:15 PM 78.8 °F 33.8 °F 20% 29.92 in 10.0 mi NNE 16.1 mph 23.0 mph N/A   Clear
3:35 PM 78.8 °F 33.8 °F 20% 29.92 in 10.0 mi NNE 15.0 mph 20.7 mph N/A   Clear
3:55 PM 78.8 °F 33.8 °F 20% 29.92 in 10.0 mi North 13.8 mph - N/A   Clear
4:15 PM 78.8 °F 35.6 °F 21% 29.92 in 10.0 mi NE 8.1 mph 17.3 mph N/A   Clear
4:35 PM 78.8 °F 35.6 °F 21% 29.92 in 10.0 mi NE 9.2 mph 17.3 mph N/A   Clear
4:55 PM 78.8 °F 33.8 °F 20% 29.92 in 10.0 mi NE 13.8 mph - N/A   Clear
5:15 PM 77.0 °F 33.8 °F 21% 29.92 in 10.0 mi ENE 12.7 mph - N/A   Clear
5:35 PM 75.2 °F 33.8 °F 22% 29.92 in 10.0 mi ENE 11.5 mph - N/A   Clear
5:55 PM 75.2 °F 33.8 °F 22% 29.91 in 7.0 mi NE 12.7 mph - N/A   Clear
6:15 PM 73.4 °F 33.8 °F 23% 29.91 in 6.0 mi NE 13.8 mph - N/A   Clear
6:35 PM 71.6 °F 33.8 °F 25% 29.92 in 5.0 mi NE 13.8 mph 21.9 mph N/A   Clear
6:55 PM 69.8 °F 33.8 °F 27% 29.92 in 6.0 mi NE 13.8 mph - N/A   Clear
7:15 PM 68.0 °F 33.8 °F 28% 29.92 in 7.0 mi NE 13.8 mph - N/A   Clear
7:35 PM 66.2 °F 33.8 °F 30% 29.93 in 10.0 mi NE 13.8 mph - N/A   Clear
7:55 PM 64.4 °F 33.8 °F 32% 29.93 in 10.0 mi NE 13.8 mph 20.7 mph N/A   Clear
8:15 PM 64.4 °F 33.8 °F 32% 29.94 in 10.0 mi NE 13.8 mph 18.4 mph N/A   Clear
8:35 PM 62.6 °F 33.8 °F 34% 29.94 in 10.0 mi NE 12.7 mph - N/A   Clear
8:55 PM 62.6 °F 33.8 °F 34% 29.94 in 10.0 mi NE 10.4 mph - N/A   Clear
9:15 PM 60.8 °F 33.8 °F 36% 29.95 in 10.0 mi NE 13.8 mph 18.4 mph N/A   Clear
9:35 PM 60.8 °F 33.8 °F 36% 29.95 in 10.0 mi NE 17.3 mph 20.7 mph N/A   Clear
9:55 PM 60.8 °F 33.8 °F 36% 29.95 in 7.0 mi NE 17.3 mph 24.2 mph N/A   Clear
10:15 PM 59.0 °F 33.8 °F 39% 29.96 in 8.0 mi NNE 18.4 mph - N/A   Clear
10:35 PM 57.2 °F 33.8 °F 41% 29.97 in 10.0 mi NE 17.3 mph 25.3 mph N/A   Clear
10:55 PM 55.4 °F 33.8 °F 44% 29.97 in 10.0 mi NNE 16.1 mph - N/A   Mostly Cloudy
11:15 PM 57.2 °F 35.6 °F 44% 29.98 in 10.0 mi NNE 15.0 mph - N/A   Overcast
11:35 PM 55.4 °F 35.6 °F 47% 29.98 in 10.0 mi NE 18.4 mph - N/A   Scattered Clouds
11:55 PM 55.4 °F 35.6 °F 47% 29.97 in 10.0 mi NE 19.6 mph 29.9 mph N/A   Clear